Showing default

QIANFAN-63, 62793

Orbit data source: Space-Track

QIANFAN-63, 62793 is a Chinese payload satellite in LEO that was launched on Thu, 23 Jan 2025 UTC via a CHANG ZHENG 6A launch vehicle from the Taiyaun Space Center, China (TSC). Payload-class satellites include a variety of spacecraft equipped with specific instruments for various scientific and technological missions. These include communications satellites like Starlink; space stations such as the ISS; scientific satellites like the Hubble; Earth observation satellites from companies like Planet Labs, Umbra, and HawkEye 360; GPS; miniature CubeSats for education and research; and military/defense satellites.

Loading next visibility...
Identifier
62793, 2025-016J
Orbit
LEO
Country
Flag of CNCN / PRC
Related business
Manufacturer
SECM
Mission
Operational Commercial Communications
Bus & Motor
QIANFAN, Unknown motor
Mass
267 kg wet, ~267 kg dry
Launch date (UTC)
2025-01-23 (9 months ago)
Launch vehicle
CHANG ZHENG 6A
Launch site
Taiyaun Space Center, China (TSC)
Object type
Payload
Rocket body
Debris
Shape & HBR
Box + 1 Pan, 1.2 m
Radar Cross Section
13.200 m², Large (>1 m²)

Expand to show TLE details & history
Last TLE update: 1 day ago

TLE from 1 day ago
0 QIANFAN-63
1 62793U 25016J   25306.47654079  .00000076  00000-0  98130-4 0  9997
2 62793  88.9746 107.2157 0017831 104.0917 256.2217 13.50973443 41836
Epoch: 2025-11-02T11:26Z
TLE epoch observation values (Epoch: 2025-11-02T11:26:13.124Z)
Latitude
-0.00004°
Longitude
-106.3307°
Altitude
1,074.818 km
Speed
7.313 km/s
True Right ascension
07h 08m 51s
True Declination
0° 00' 00"
Sunlit
Object was in daylight at epoch
Visualization orbit readout
Latitude
Unknown
Longitude
Unknown
Altitude
Unknown
Speed
Unknown
Apparent Right ascension
Unknown
Apparent Declination
Unknown
Sunlit
N/A
Visualization observer readout
Local Sidereal Time
14:37:00
Azimuth
Unknown
Elevation
Unknown
Doppler factor
Unknown
Orbital elements
Apogee altitude
1,079.004 km
Perigee altitude
1,052.457 km
Semi-major axis
7,443.867 km
Eccentricity
0.00178
Inclination
88.9746°
RAAN
107.2157°
Arg. of periapsis
104.0917°
True anomaly
256.02336°
Mean anomaly
256.2217°
Eccentric anomaly
256.12252°
Mean motion
3.37944 °/min
Orbital period
106.53 mins
BSTAR
0.00009813
Loading maneuver chart data...
Computing Atmospheric mass density...
Loading historical data...
Loading historical data...
Loading historical data...
Loading historical data...
Loading historical data...
Loading historical data...
Loading historical data...

Documentation

Showing up to 5 results
|